Volver al catálogo

YUNHAI 1-02

ActivoMeteoSSO
NORAD 44547·PAYLOAD·🇨🇳 China

Lanzado Sep 25, 2019 desde Jiuquan Satellite Launch Center

Loading…

Próximos Pases (próximas 24 horas)

TLE

ActualizadoSource: Space-Track

Época: Sep 14, 2026, 14:19 UTC

1 44547U 19063A   26257.59721491  .00000211  00000-0  93392-4 0  9997
2 44547  98.4147 265.4542 0004931 252.6583 107.4062 14.32598479364673

Sigue YUNHAI 1-02 en tiempo real con AllMySat

Download on the App Store